Volver al catálogo

QIANFAN-36

ActivoComunicacionesPO
NORAD 61569·PAYLOAD·🇨🇳 China

Lanzado Oct 15, 2024 desde Taiyuan Satellite Launch Center

Loading…

Próximos Pases (próximas 24 horas)

TLE

ActualizadoSource: Space-Track

Época: Sep 14, 2026, 20:50 UTC

1 61569U 24185T   26257.86813585  .00000072  00000-0  86089-4 0  9997
2 61569  88.9791  52.2680 0005217 336.0055  24.0855 13.55646865105336

Sigue QIANFAN-36 en tiempo real con AllMySat

Download on the App Store